Date_and_time,latitude,longitude,wind_speed,RelWindDirFrom,WindDirFrom,air_pressure,air_temperature,relative_humidity,Temp,platform_speed_wrt_ground,air_pressure_at_mean_sea_level,platform_orientation
2019-12-26 00:00,50.6304616666667,-96.9807633333333,1.4,2.3,325,987.16,-5.1,99,0.77,0.0,1015.55,360.0
2019-12-26 00:10,50.6304616666667,-96.980765,1.7,2.6,349,987.11,-5.0,99,0.77,0.0,1015.50,360.0
2019-12-26 00:20,50.6304616666667,-96.9807666666667,3.3,4.1,353,986.98,-5.0,99,0.77,0.0,1015.36,360.0
2019-12-26 00:30,50.6304566666667,-96.9807583333333,2.8,3.5,354,986.89,-5.0,99,0.77,0.0,1015.26,360.0
2019-12-26 00:40,50.6304566666667,-96.9807616666667,3.1,4.0,357,986.80,-5.0,99,0.77,0.0,1015.17,360.0
2019-12-26 00:50,50.6304566666667,-96.9807616666667,2.3,3.1,344,986.81,-5.0,99,0.76,0.0,1015.18,360.0
2019-12-26 01:00,50.6304566666667,-96.9807666666667,2.6,3.3,338,986.68,-5.0,99,0.76,0.0,1015.05,90.0
2019-12-26 01:10,50.6304566666667,-96.9807666666667,2.7,4.1,308,986.61,-5.0,99,0.76,0.0,1014.98,90.0
2019-12-26 01:20,50.6304566666667,-96.9807683333333,2.1,3.2,339,986.64,-4.9,100,0.76,0.0,1015.00,90.0
2019-12-26 01:30,50.6304566666667,-96.9807666666667,3.1,3.9,343,986.56,-4.9,100,0.76,0.0,1014.91,90.0
2019-12-26 01:40,50.630455,-96.9807633333333,1.5,2.6,329,986.55,-4.9,100,0.77,0.0,1014.90,90.0
2019-12-26 01:50,50.630455,-96.9807633333333,1.5,2.0,321,986.49,-4.9,100,0.77,0.0,1014.84,90.0
2019-12-26 02:00,50.6304633333333,-96.9807633333333,1.7,2.7,318,986.44,-4.9,100,0.76,0.0,1014.78,323.4
2019-12-26 02:10,50.6304583333333,-96.9807566666667,2.0,2.9,318,986.42,-4.9,100,0.76,0.0,1014.76,323.4
2019-12-26 02:20,50.6304566666667,-96.9807633333333,2.4,3.5,315,986.41,-4.8,100,0.76,0.0,1014.74,323.4
2019-12-26 02:30,50.630455,-96.9807633333333,2.5,3.1,319,986.40,-4.8,100,0.76,0.0,1014.73,323.4
2019-12-26 02:40,50.630445,-96.9807483333333,2.6,3.6,311,986.40,-4.7,100,0.76,0.0,1014.73,323.4
2019-12-26 02:50,50.63045,-96.98075,2.1,3.4,305,986.39,-4.7,100,0.77,0.0,1014.71,323.4
2019-12-26 03:00,50.6304466666667,-96.9807516666667,2.1,3.2,320,986.33,-4.6,100,0.77,0.0,1014.66,176.8
2019-12-26 03:10,50.6304466666667,-96.9807483333333,2.6,3.8,317,986.22,-4.6,100,0.78,0.0,1014.54,176.8
2019-12-26 03:20,50.6304533333333,-96.980765,2.7,4.2,309,986.11,-4.6,100,0.78,0.0,1014.42,176.8
2019-12-26 03:30,50.63045,-96.980765,1.9,2.8,322,986.05,-4.5,100,0.78,0.0,1014.36,176.8
2019-12-26 03:40,50.63045,-96.980765,2.0,2.7,325,985.99,-4.5,100,0.78,0.0,1014.29,176.8
2019-12-26 03:50,50.6304516666667,-96.9807683333333,2.4,3.5,331,985.94,-4.4,100,0.78,0.0,1014.24,176.8
2019-12-26 04:00,50.6304566666667,-96.9807716666667,3.3,3.8,337,985.91,-4.4,100,0.78,0.0,1014.21,270.0
2019-12-26 04:10,50.6304616666667,-96.98077,3.1,3.9,328,985.86,-4.4,100,0.78,0.0,1014.15,270.0
2019-12-26 04:20,50.6304616666667,-96.9807666666667,3.1,4.0,325,985.85,-4.4,100,0.79,0.0,1014.13,270.0
2019-12-26 04:30,50.63046,-96.980765,2.8,3.7,322,985.84,-4.4,100,0.79,0.0,1014.12,270.0
2019-12-26 04:40,50.6304583333333,-96.980765,2.7,3.6,320,985.84,-4.4,100,0.79,0.0,1014.12,270.0
2019-12-26 04:50,50.6304583333333,-96.980765,2.5,3.4,325,985.83,-4.3,100,0.79,0.0,1014.10,270.0
2019-12-26 05:00,50.6304583333333,-96.9807633333333,2.7,3.6,324,985.77,-4.3,100,0.79,0.0,1014.04,360.0
2019-12-26 05:10,50.6304616666667,-96.9807616666667,3.0,4.1,319,985.67,-4.3,100,0.79,0.0,1013.94,360.0
2019-12-26 05:20,50.630465,-96.9807616666667,3.8,4.7,317,985.55,-4.3,100,0.79,0.0,1013.80,360.0
2019-12-26 05:30,50.6304516666667,-96.9807583333333,2.9,4.0,313,985.47,-4.3,100,0.79,0.0,1013.72,360.0
2019-12-26 05:40,50.6304516666667,-96.9807516666667,2.6,3.5,313,985.43,-4.2,100,0.79,0.0,1013.68,360.0
2019-12-26 05:50,50.6304516666667,-96.98075,2.2,3.1,324,985.39,-4.2,100,0.79,0.0,1013.64,360.0
2019-12-26 06:00,50.6304516666667,-96.980755,2.5,3.2,334,985.35,-4.1,100,0.78,0.0,1013.59,347.4
2019-12-26 06:10,50.6304666666667,-96.980765,2.6,3.5,339,985.32,-4.1,100,0.78,0.0,1013.56,347.4
2019-12-26 06:20,50.6304666666667,-96.9807666666667,2.2,2.8,334,985.28,-4.2,100,0.78,0.0,1013.52,347.4
2019-12-26 06:30,50.6304666666667,-96.9807633333333,2.3,2.9,333,985.23,-4.2,100,0.78,0.0,1013.46,347.4
2019-12-26 06:40,50.630465,-96.980765,2.5,3.0,338,985.12,-4.2,100,0.78,0.0,1013.35,347.4
2019-12-26 06:50,50.630465,-96.9807666666667,2.3,2.8,333,984.98,-4.2,100,0.78,0.0,1013.20,347.4
2019-12-26 07:00,50.6304666666667,-96.9807683333333,2.3,3.0,330,984.87,-4.2,100,0.78,0.0,1013.09,360.0
2019-12-26 07:10,50.6304683333333,-96.9807683333333,2.7,3.5,332,984.78,-4.2,100,0.78,0.0,1013.00,360.0
2019-12-26 07:20,50.6304733333333,-96.9807633333333,2.7,3.5,325,984.71,-4.2,100,0.78,0.0,1012.92,360.0
2019-12-26 07:30,50.630475,-96.9807666666667,3.2,4.2,350,984.67,-4.1,100,0.78,0.0,1012.88,360.0
2019-12-26 07:40,50.6304733333333,-96.980765,3.6,4.3,352,984.55,-4.1,100,0.78,0.0,1012.75,360.0
2019-12-26 07:50,50.63047,-96.9807683333333,3.0,3.9,333,984.47,-4.1,100,0.78,0.0,1012.66,360.0
2019-12-26 08:00,50.630465,-96.980755,3.0,3.9,335,984.39,-4.1,100,0.78,0.0,1012.58,14.5
2019-12-26 08:10,50.630475,-96.98078,2.4,3.6,326,984.42,-4.1,100,0.78,0.0,1012.62,14.5
2019-12-26 08:20,50.6304683333333,-96.980775,1.9,2.9,315,984.45,-4.1,100,0.78,0.0,1012.65,14.5
2019-12-26 08:30,50.6304683333333,-96.9807733333333,2.4,4.0,318,984.49,-4.1,100,0.78,0.0,1012.69,14.5
2019-12-26 08:40,50.6304666666667,-96.9807733333333,2.1,2.8,312,984.57,-4.1,100,0.78,0.0,1012.77,14.5
2019-12-26 08:50,50.6304683333333,-96.9807666666667,2.5,4.6,294,984.58,-4.2,100,0.78,0.0,1012.79,14.5
2019-12-26 09:00,50.6304616666667,-96.9807633333333,4.0,5.4,289,984.49,-4.3,100,0.78,0.0,1012.70,345.5
2019-12-26 09:10,50.6304633333333,-96.980765,3.6,5.9,304,984.50,-4.3,100,0.78,0.0,1012.71,345.5
2019-12-26 09:20,50.6304633333333,-96.9807633333333,3.0,4.5,308,984.57,-4.3,100,0.78,0.0,1012.78,345.5
2019-12-26 09:30,50.63047,-96.9807583333333,3.2,4.3,298,984.56,-4.3,100,0.78,0.0,1012.77,345.5
2019-12-26 09:40,50.630465,-96.9807616666667,3.4,5.1,281,984.58,-4.4,100,0.78,0.0,1012.79,345.5
2019-12-26 09:50,50.6304666666667,-96.9807666666667,3.9,5.8,285,984.51,-4.4,100,0.78,0.0,1012.72,345.5
2019-12-26 10:00,50.6304666666667,-96.980765,4.5,6.6,290,984.40,-4.5,100,0.78,0.0,1012.61,0.0
2019-12-26 10:10,50.630465,-96.9807666666667,4.3,6.2,291,984.34,-4.5,100,0.78,0.0,1012.55,0.0
2019-12-26 10:20,50.6304666666667,-96.9807683333333,4.5,6.0,287,984.18,-4.5,100,0.78,0.0,1012.39,0.0
2019-12-26 10:30,50.6304666666667,-96.9807716666667,4.7,7.0,284,984.02,-4.5,100,0.77,0.0,1012.23,0.0
2019-12-26 10:40,50.630465,-96.9807666666667,4.8,7.3,278,983.95,-4.6,100,0.76,0.0,1012.16,0.0
2019-12-26 10:50,50.6304616666667,-96.980765,5.0,7.4,281,983.92,-4.6,100,0.76,0.0,1012.14,0.0
2019-12-26 11:00,50.6304616666667,-96.9807633333333,4.8,6.8,288,983.81,-4.7,100,0.76,0.0,1012.03,228.3
2019-12-26 11:10,50.6304616666667,-96.9807633333333,4.3,6.4,288,983.69,-4.7,100,0.76,0.0,1011.90,228.3
2019-12-26 11:20,50.6304516666667,-96.980775,3.9,5.4,285,983.66,-4.8,100,0.76,0.0,1011.88,228.3
2019-12-26 11:30,50.6304566666667,-96.9807716666667,4.5,6.5,280,983.68,-4.8,100,0.76,0.0,1011.90,228.3
2019-12-26 11:40,50.6304583333333,-96.9807716666667,4.3,6.4,288,983.60,-4.8,100,0.76,0.0,1011.82,228.3
2019-12-26 11:50,50.6304983333333,-96.9807833333333,4.1,5.9,296,983.52,-4.8,100,0.76,0.0,1011.75,228.3
2019-12-26 12:00,50.6304666666667,-96.9807683333333,5.5,7.5,294,983.46,-4.9,100,0.76,0.0,1011.69,38.0
2019-12-26 12:10,50.6304516666667,-96.980745,5.4,7.4,294,983.51,-4.9,100,0.76,0.0,1011.75,38.0
2019-12-26 12:20,50.6304666666667,-96.980755,4.1,5.9,294,983.61,-4.9,100,0.76,0.0,1011.84,38.0
2019-12-26 12:30,50.63046,-96.9807783333333,4.5,6.7,298,983.64,-4.9,100,0.76,0.0,1011.88,38.0
2019-12-26 12:40,50.6304566666667,-96.9807733333333,4.3,6.1,296,983.64,-5.0,100,0.76,0.0,1011.88,38.0
2019-12-26 12:50,50.630455,-96.9807716666667,4.1,6.7,300,983.74,-5.0,100,0.76,0.0,1012.00,38.0
2019-12-26 13:00,50.6304566666667,-96.9807716666667,3.4,5.4,295,983.81,-5.0,100,0.76,0.0,1012.07,360.0
2019-12-26 13:10,50.6304566666667,-96.98077,4.1,5.4,281,983.86,-5.0,100,0.76,0.0,1012.12,360.0
2019-12-26 13:20,50.6304566666667,-96.9807716666667,4.1,6.1,272,983.93,-5.1,100,0.75,0.0,1012.20,360.0
2019-12-26 13:30,50.6304583333333,-96.98077,4.6,6.1,282,983.88,-5.1,100,0.75,0.0,1012.16,360.0
2019-12-26 13:40,50.6304583333333,-96.9807683333333,4.2,6.4,278,983.92,-5.2,100,0.75,0.0,1012.20,360.0
2019-12-26 13:50,50.63046,-96.9807683333333,5.1,7.2,273,983.93,-5.2,100,0.75,0.0,1012.22,360.0
2019-12-26 14:00,50.6304716666667,-96.98077,4.8,6.9,281,983.91,-5.3,100,0.75,0.0,1012.19,360.0
2019-12-26 14:10,50.6304616666667,-96.980765,4.4,6.7,281,983.89,-5.3,100,0.75,0.0,1012.17,360.0
2019-12-26 14:20,50.63046,-96.9807666666667,3.9,7.1,282,983.94,-5.3,100,0.75,0.0,1012.23,360.0
2019-12-26 14:30,50.63046,-96.980765,4.7,7.5,271,983.95,-5.4,100,0.75,0.0,1012.25,360.0
2019-12-26 14:40,50.63046,-96.9807616666667,5.5,9.1,277,983.97,-5.6,100,0.75,0.0,1012.28,360.0
2019-12-26 14:50,50.63046,-96.9807616666667,5.7,8.5,277,984.05,-5.8,100,0.75,0.0,1012.37,360.0
2019-12-26 15:00,50.63046,-96.98076,6.8,9.9,279,984.07,-6.1,99,0.75,0.0,1012.41,165.5
2019-12-26 15:10,50.6304766666667,-96.980785,6.3,9.2,284,984.10,-6.3,99,0.74,0.0,1012.45,165.5
2019-12-26 15:20,50.630455,-96.9807816666667,5.0,7.7,280,984.16,-6.5,99,0.74,0.0,1012.53,165.5
2019-12-26 15:30,50.6304566666667,-96.9807716666667,4.8,7.8,282,984.17,-6.5,99,0.74,0.0,1012.55,165.5
2019-12-26 15:40,50.63046,-96.9807716666667,4.7,7.6,285,984.26,-6.6,99,0.74,0.0,1012.64,165.5
2019-12-26 15:50,50.63046,-96.9807716666667,5.4,8.1,283,984.32,-6.7,99,0.74,0.0,1012.72,165.5
2019-12-26 16:00,50.630455,-96.9808033333333,4.7,7.2,277,984.39,-6.8,99,0.73,0.0,1012.79,270.0
2019-12-26 16:10,50.63046,-96.980765,4.5,7.3,267,984.42,-6.9,99,0.73,0.0,1012.83,270.0
2019-12-26 16:20,50.63046,-96.9807783333333,5.9,8.9,274,984.38,-7.0,99,0.73,0.0,1012.80,270.0
2019-12-26 16:30,50.63046,-96.98076,4.8,7.2,269,984.40,-7.1,99,0.73,0.0,1012.83,270.0
2019-12-26 16:40,50.6304583333333,-96.9807566666667,6.0,8.9,269,984.42,-7.0,99,0.73,0.0,1012.86,270.0
2019-12-26 16:50,50.6304583333333,-96.9807566666667,5.9,8.2,263,984.48,-7.0,99,0.72,0.0,1012.93,270.0
2019-12-26 17:00,50.6304566666667,-96.9807816666667,6.1,9.0,261,984.46,-7.0,99,0.73,0.0,1012.93,360.0
2019-12-26 17:10,50.6304566666667,-96.98077,6.2,8.9,259,984.41,-7.0,99,0.73,0.0,1012.89,360.0
2019-12-26 17:20,50.6304316666667,-96.9807883333333,7.2,10.0,258,984.40,-7.0,99,0.73,0.0,1012.88,360.0
2019-12-26 17:30,50.6304483333333,-96.980775,6.4,10.1,264,984.33,-7.0,99,0.74,0.0,1012.82,360.0
2019-12-26 17:40,50.6304533333333,-96.98077,6.7,10.1,264,984.27,-7.1,99,0.72,0.0,1012.76,360.0
2019-12-26 17:50,50.6304533333333,-96.9807666666667,6.9,10.2,263,984.27,-7.1,99,0.72,0.0,1012.76,360.0
2019-12-26 18:00,50.630455,-96.9807633333333,6.5,10.4,278,984.19,-7.0,99,0.72,0.0,1012.68,192.6
2019-12-26 18:10,50.6304566666667,-96.9807633333333,7.1,10.6,266,984.22,-7.1,99,0.72,0.0,1012.73,192.6
2019-12-26 18:20,50.6304566666667,-96.9807633333333,6.6,10.1,267,984.18,-7.1,99,0.72,0.0,1012.69,192.6
2019-12-26 18:30,50.6304583333333,-96.9807633333333,6.3,9.7,277,984.17,-7.0,99,0.72,0.0,1012.67,192.6
2019-12-26 18:40,50.63046,-96.980765,6.6,9.6,286,984.10,-7.1,97,0.72,0.0,1012.60,192.6
2019-12-26 18:50,50.63046,-96.980765,5.3,8.0,275,984.08,-7.1,98,0.72,0.0,1012.58,192.6
2019-12-26 19:00,50.63046,-96.9807666666667,6.3,8.7,265,983.99,-7.1,96,0.73,0.0,1012.49,78.2
2019-12-26 19:10,50.6304583333333,-96.9807666666667,6.2,10.2,271,983.92,-7.1,95,0.73,0.0,1012.42,78.2
2019-12-26 19:20,50.6304583333333,-96.980765,6.2,9.3,265,983.85,-7.0,96,0.73,0.0,1012.34,78.2
2019-12-26 19:30,50.6304633333333,-96.9807566666667,7.3,10.6,266,983.89,-7.0,94,0.72,0.0,1012.38,78.2
2019-12-26 19:40,50.6304583333333,-96.9807633333333,7.4,11.0,269,984.00,-6.9,92,0.72,0.0,1012.49,78.2
2019-12-26 19:50,50.6304566666667,-96.9807616666667,8.0,11.2,272,984.00,-6.7,92,0.72,0.0,1012.48,78.2
2019-12-26 20:00,50.6304566666667,-96.9807633333333,7.8,11.1,272,984.01,-6.6,92,0.73,0.0,1012.49,90.0
2019-12-26 20:10,50.630455,-96.980765,6.3,10.2,281,983.94,-6.5,93,0.73,0.0,1012.41,90.0
2019-12-26 20:20,50.6304566666667,-96.980765,7.1,11.5,286,983.88,-6.4,93,0.74,0.0,1012.34,90.0
2019-12-26 20:30,50.6304566666667,-96.9807666666667,6.2,9.9,290,983.85,-6.3,93,0.74,0.0,1012.31,90.0
2019-12-26 20:40,50.6304566666667,-96.9807666666667,6.6,11.4,295,983.86,-6.1,94,0.74,0.0,1012.30,90.0
2019-12-26 20:50,50.6304566666667,-96.9807666666667,8.0,11.5,304,983.87,-6.1,96,0.74,0.0,1012.32,90.0
2019-12-26 21:00,50.63044,-96.9807766666667,5.7,8.7,307,983.91,-6.0,98,0.75,0.0,1012.35,221.3
2019-12-26 21:10,50.6304516666667,-96.980775,4.5,7.1,295,984.08,-5.9,99,0.75,0.0,1012.52,221.3
2019-12-26 21:20,50.6304566666667,-96.9807716666667,4.5,8.2,284,984.13,-5.8,99,0.75,0.0,1012.55,221.3
2019-12-26 21:30,50.630455,-96.98077,6.0,9.9,280,984.26,-5.5,99,0.75,0.0,1012.67,221.3
2019-12-26 21:40,50.630455,-96.9807716666667,7.6,11.0,285,984.26,-5.3,98,0.75,0.0,1012.65,221.3
2019-12-26 21:50,50.6304566666667,-96.9807716666667,7.7,11.3,293,984.30,-5.2,96,0.75,0.0,1012.68,221.3
2019-12-26 22:00,50.6304583333333,-96.980765,7.4,12.4,283,984.50,-5.1,96,0.75,0.0,1012.88,0.0
2019-12-26 22:10,50.63046,-96.980765,6.1,9.4,293,984.60,-5.1,96,0.75,0.0,1012.98,0.0
2019-12-26 22:20,50.6304583333333,-96.9807633333333,6.9,13.5,297,984.75,-5.0,95,0.75,0.0,1013.11,0.0
2019-12-26 22:30,50.6304416666667,-96.9807316666667,6.0,10.2,293,984.93,-5.0,95,0.76,0.0,1013.29,0.0
2019-12-26 22:40,50.6304466666667,-96.9807616666667,4.6,7.7,275,985.10,-5.0,95,0.76,0.0,1013.47,0.0
2019-12-26 22:50,50.630455,-96.9807616666667,5.2,8.3,265,985.22,-5.0,96,0.76,0.0,1013.58,0.0
2019-12-26 23:00,50.6304566666667,-96.9807633333333,5.1,7.2,258,985.31,-5.0,95,0.76,0.0,1013.68,0.0
2019-12-26 23:10,50.630455,-96.980765,5.1,6.9,246,985.34,-5.1,97,0.76,0.0,1013.70,0.0
2019-12-26 23:20,50.6304566666667,-96.9807633333333,4.4,7.2,243,985.42,-5.2,98,0.76,0.0,1013.78,0.0
2019-12-26 23:30,50.6304583333333,-96.9807616666667,5.0,7.6,228,985.45,-5.3,99,0.76,0.0,1013.81,0.0
2019-12-26 23:40,50.6304583333333,-96.9807633333333,4.4,6.3,238,985.42,-5.4,99,0.76,0.0,1013.77,0.0
